User: anonymous   Login
Location: Knowlton
(51.2333°N, 1.2667°E)
Time: 13:01:29
(UTC+00:00)
Language:

Cosmos 2297 Rocket - Orbit

View from above orbital plane
View from above orbital plane
View from above satellite
View from above satellite

Ground track
Ground track

The orbit data is extracted from the following two-line orbital elements,

1 23405U 94077B   21173.85389896  .00000004  00000-0  26425-4 0  9998
2 23405  70.9838  11.6406 0004817 264.5079  95.5494 14.15243631372752
Epoch (UTC): 22 June 2021 20:29:36
Eccentricity: 0.0004817
inclination: 70.9838°
perigee height: 838 km
apogee height: 845 km
right ascension of ascending node: 11.6406°
argument of perigee: 264.5079°
revolutions per day: 14.15243631
mean anomaly at epoch: 95.5494°
orbit number at epoch: 37275

The dashed part of the orbit path shows where the satellite is in the earth's shadow,  

DLR